Location: Newark
(52.3735°N, 16.9806°E)
Time: 22:42:19
(UTC+00:00)

TIGRISAT - Visible Passes

Search period start: 01 December 2021 00:00
Search period end: 11 December 2021 00:00
Orbit: 603 x 689 km, 97.7° (Epoch: 01 December)

Date Brightness Start Highest point End Pass type
(mag) Time Alt. Az. Time Alt. Az. Time Alt. Az.
01 Dec ? 02:58:50 10° ENE 02:59:58 11° NE 03:01:08 10° NE visible
01 Dec ? 04:31:37 10° SSE 04:35:52 65° ENE 04:40:05 10° N visible
02 Dec ? 03:22:16 10° E 03:25:01 17° ENE 03:27:47 10° NNE visible
02 Dec ? 04:56:57 10° S 05:01:13 74° WSW 05:05:29 10° NNW visible
03 Dec ? 03:46:36 10° ESE 03:50:09 26° ENE 03:53:42 10° N visible
03 Dec ? 05:22:37 10° S 05:26:40 42° W 05:30:44 10° NNW visible
04 Dec ? 04:11:20 10° SE 04:15:21 42° ENE 04:19:23 10° N visible
04 Dec ? 05:48:41 10° SSW 05:52:13 25° W 05:55:45 10° NW visible
05 Dec ? 03:03:04 10° ENE 03:04:43 12° NE 03:06:21 10° NNE visible
05 Dec ? 04:36:24 10° SSE 04:40:39 73° ENE 04:44:53 10° N visible
06 Dec ? 03:26:49 10° ESE 03:29:45 19° ENE 03:32:43 10° NNE visible
06 Dec ? 05:01:49 10° S 05:06:02 65° WSW 05:10:16 10° NNW visible
07 Dec ? 03:51:14 10° ESE 03:54:54 29° ENE 03:58:35 10° N visible
07 Dec ? 05:27:32 10° SSW 05:31:30 37° W 05:35:28 10° NNW visible
08 Dec ? 04:16:03 10° SE 04:20:07 47° ENE 04:24:08 10° N visible
08 Dec ? 05:53:42 10° SW 05:57:03 22° W 06:00:25 10° NW visible
09 Dec ? 03:07:25 10° E 03:09:26 13° NE 03:11:26 10° NNE visible
09 Dec ? 04:41:11 10° SSE 04:45:25 82° ENE 04:49:40 10° NNW visible
10 Dec ? 03:31:22 10° ESE 03:34:29 20° ENE 03:37:30 11° NNE visible
10 Dec ? 05:06:38 10° S 05:10:49 58° W 05:15:02 10° NNW visible
